CW5272 Weather Reports


time (UTC)temp
C
wind
direction
speed
KPH
gust
KPH
rain 1hr
cm
rain 24hr
cm
rain mn
cm
humidity
%
barometer
mb
20260505171539 12 281 1.6 14.5 0.00 0.00 0.00 81 1016.1
20260505170038 12 281 0.0 12.9 0.00 0.00 0.00 83 1016.0
20260505164538 11 0 0.0 19.3 0.00 0.00 0.00 85 1015.9
20260505163032 11 0 0.0 6.4 0.00 0.00 0.00 87 1015.9
20260505161541 10 0 0.0 12.9 0.00 0.00 0.00 87 1015.8
20260505153039 10 0 0.0 9.7 0.00 0.00 0.00 88 1015.8
20260505151534 10 0 0.0 6.4 0.00 0.00 0.00 88 1015.5
20260505124535 9 0 0.0 6.4 0.00 0.00 0.00 87 1014.9
20260505123034 9 0 0.0 0.0 0.00 0.00 0.00 87 1014.8
20260505121537 9 0 0.0 0.0 0.00 0.00 0.00 87 1014.9
20260505120031 9 0 0.0 8.0 0.00 0.00 0.00 87 1014.9
20260505114538 9 0 0.0 6.4 0.00 0.00 0.00 87 1014.9
20260505113037 8 287 0.0 8.0 0.00 0.00 0.00 87 1014.8
20260505111534 8 0 0.0 11.3 0.00 0.00 0.00 87 1014.6
20260505101544 9 0 0.0 12.9 0.00 0.00 0.00 87 1014.7
20260505100036 9 0 0.0 8.0 0.00 0.00 0.00 88 1014.9
20260505094532 9 0 0.0 11.3 0.00 0.00 0.00 89 1015.0
20260505093040 9 0 0.0 8.0 0.00 0.00 0.00 89 1015.0
20260505091534 9 0 0.0 4.8 0.00 0.00 0.00 89 1015.2
20260505090044 9 0 0.0 4.8 0.00 0.00 0.00 89 1015.4
20260505084546 10 287 1.6 11.3 0.00 0.00 0.00 89 1015.4
20260505083054 10 0 0.0 8.0 0.00 0.00 0.00 89 1015.3
20260505081534 10 288 1.6 12.9 0.00 0.00 0.00 89 1015.4
20260505080041 10 0 0.0 16.1 0.00 0.00 0.00 89 1015.5
20260505074538 10 0 0.0 16.1 0.00 0.00 0.00 89 1015.4
20260505073036 10 0 0.0 8.0 0.00 0.00 0.00 89 1015.4
20260505071544 10 290 1.6 12.9 0.00 0.00 0.00 89 1015.2
20260505070034 10 0 3.2 12.9 0.00 0.00 0.00 88 1015.2
20260505064534 10 0 0.0 12.9 0.00 0.00 0.00 88 1015.2
20260505063030 10 290 3.2 12.9 0.00 0.00 0.00 87 1015.1
20260505061538 10 0 1.6 12.9 0.00 0.00 0.00 86 1015.1
20260505060038 10 290 3.2 14.5 0.00 0.00 0.00 85 1015.2
20260505054536 10 0 3.2 12.9 0.00 0.00 0.00 85 1015.3
20260505053039 10 0 0.0 8.0 0.00 0.00 0.00 84 1015.6
20260505051532 10 0 3.2 12.9 0.00 0.00 0.00 84 1015.6
20260505041533 11 0 0.0 11.3 0.00 0.00 0.00 78 1015.3
20260505040040 11 0 0.0 14.5 0.00 0.00 0.00 79 1015.0
20260505034538 11 0 1.6 14.5 0.00 0.00 0.00 79 1014.7
20260505033038 11 0 1.6 19.3 0.00 0.00 0.00 80 1014.6
20260505031543 12 292 4.8 19.3 0.00 0.00 0.00 78 1014.7
20260505030032 12 0 1.6 14.5 0.00 0.00 0.00 77 1014.8
20260505024545 13 242 0.0 14.5 0.00 0.00 0.00 75 1014.7
20260505023040 13 241 3.2 11.3 0.00 0.00 0.00 74 1014.6
20260505021529 13 0 0.0 11.3 0.00 0.00 0.00 73 1014.6
20260505020032 13 0 1.6 12.9 0.00 0.00 0.00 72 1014.5
20260505014540 14 0 0.0 12.9 0.00 0.00 0.00 71 1014.6
20260505013033 14 241 0.0 16.1 0.00 0.00 0.00 70 1014.7
20260505011536 15 246 0.0 6.4 0.00 0.00 0.00 70 1014.6
20260505010033 15 246 0.0 14.5 0.00 0.00 0.00 70 1014.9
20260505004534 16 0 3.2 17.7 0.00 0.00 0.00 67 1014.9
20260505003032 17 228 3.2 22.5 0.00 0.00 0.00 63 1015.0
20260505001543 17 0 3.2 16.1 0.00 0.00 0.00 63 1014.9
20260505000029 16 0 4.8 12.9 0.00 0.00 0.00 64 1014.8
20260504234529 16 0 0.0 6.4 0.00 0.00 0.00 67 1014.9
20260504233032 16 0 0.0 12.9 0.00 0.00 0.00 64 1014.7
20260504231532 16 225 0.0 11.3 0.00 0.00 0.00 65 1014.9
20260504230030 16 222 1.6 12.9 0.00 0.00 0.00 62 1015.0
20260504224536 17 0 1.6 12.9 0.00 0.00 0.00 59 1015.0
20260504223028 17 0 0.0 14.5 0.00 0.00 0.00 56 1015.1
20260504221532 17 229 0.0 11.3 0.00 0.00 0.00 62 1015.2
20260504220033 17 225 4.8 12.9 0.00 0.00 0.00 62 1015.4
20260504214532 16 0 1.6 14.5 0.00 0.00 0.00 64 1015.6
20260504213031 17 0 3.2 14.5 0.00 0.00 0.00 65 1015.5
20260504211533 15 207 0.0 11.3 0.00 0.00 0.00 71 1015.9
20260504210044 13 206 1.6 11.3 0.00 0.00 0.00 75 1015.9
20260504204546 14 205 0.0 9.7 0.00 0.00 0.00 77 1015.7
20260504203035 13 0 0.0 8.0 0.00 0.00 0.00 76 1015.8
20260504201531 13 207 0.0 8.0 0.00 0.00 0.00 76 1015.9
20260504200029 14 206 0.0 4.8 0.00 0.00 0.00 76 1015.9
20260504194532 14 0 1.6 11.3 0.00 0.00 0.00 74 1015.9
20260504193032 14 0 1.6 11.3 0.00 0.00 0.00 76 1015.9
20260504191531 13 209 0.0 11.3 0.00 0.00 0.00 78 1016.0
20260504190031 13 213 3.2 12.9 0.00 0.00 0.00 80 1016.2
20260504184531 12 0 1.6 12.9 0.00 0.00 0.00 81 1016.3
20260504183034 12 211 1.6 11.3 0.00 0.00 0.00 81 1016.2
20260504181533 13 211 3.2 11.3 0.00 0.00 0.00 79 1016.1
20260504180032 12 0 1.6 9.7 0.00 0.00 0.00 81 1016.0
20260504174534 13 0 3.2 14.5 0.00 0.00 0.00 77 1015.7
20260504173055 13 0 1.6 8.0 0.00 0.00 0.00 78 1015.5